User: anonymous   Login
Location: Unnamed
(33.0780°N, 97.0417°W)
Time: 10:59:45
(UTC-05:00)
Language:

X-37B - Orbit

View from above orbital plane
View from above orbital plane
View from above satellite
View from above satellite

Ground track
Ground track

The orbit data is extracted from the following two-line orbital elements,

1 45606U 20029A   21241.82351740 0.00000000  00000-0  00000-0 0    07
2 45606  45.0320 152.9797 0009004 222.1690 137.8306 15.60049499    07
Epoch (UTC): 29 August 2021 19:45:51
Eccentricity: 0.0009004
inclination: 45.0320°
perigee height: 381 km
apogee height: 393 km
right ascension of ascending node: 152.9797°
argument of perigee: 222.1690°
revolutions per day: 15.60049499
mean anomaly at epoch: 137.8306°
orbit number at epoch: 0

The dashed part of the orbit path shows where the satellite is in the earth's shadow,  

DLR